AUA374 LOWW-LFMN

Flight info

Callsign AUA374
Flight time 1h 24m
Altitude 34000
Route OSPEN DCT ABRUK DCT SETAL DCT DETSA DCT LUSIL DCT EVANO DCT ENOBA DCT ASBOP Z185 BORDI
Aircraft A20N/M-SDE2E3FGHIRWXY/LB1

Departure

Time 2026-05-07 06:51
Airport Vienna International Airport (LOWW)

Arrival

Time 2026-05-07 08:15
Airport Nice-Côte d'Azur Airport (LFMN)
Time Latitude Longitude Altitude Speed Heading
2026-05-07 06:15 48.11657 16.56958 605 ft 0 kts 26°
2026-05-07 06:43 48.11638 16.56945 605 ft 3 kts 26°
2026-05-07 06:44 48.11613 16.56927 605 ft 3 kts 26°
2026-05-07 06:44 48.11599 16.56898 605 ft 3 kts 81°
2026-05-07 06:44 48.11602 16.56870 605 ft 0 kts 119°
2026-05-07 06:47 48.11597 16.56884 605 ft 5 kts 120°
2026-05-07 06:47 48.11572 16.56947 605 ft 7 kts 120°
2026-05-07 06:47 48.11544 16.57031 605 ft 9 kts 115°
2026-05-07 06:47 48.11513 16.57126 605 ft 9 kts 116°
2026-05-07 06:48 48.11475 16.57240 604 ft 14 kts 115°
2026-05-07 06:48 48.11419 16.57379 601 ft 15 kts 156°
2026-05-07 06:48 48.11319 16.57335 602 ft 14 kts 207°
2026-05-07 06:48 48.11224 16.57284 603 ft 13 kts 164°
2026-05-07 06:49 48.11167 16.57412 600 ft 16 kts 116°
2026-05-07 06:49 48.11109 16.57575 598 ft 17 kts 118°
2026-05-07 06:49 48.11039 16.57646 598 ft 12 kts 198°
2026-05-07 06:49 48.10954 16.57581 600 ft 13 kts 208°
2026-05-07 06:50 48.10932 16.57477 601 ft 4 kts 295°
2026-05-07 06:50 48.10932 16.57475 601 ft 0 kts 295°
2026-05-07 06:50 48.10933 16.57474 601 ft 1 kts 295°
2026-05-07 06:50 48.11047 16.57111 604 ft 79 kts 296°
2026-05-07 06:51 48.11416 16.56015 594 ft 151 kts 299°
2026-05-07 06:51 48.11883 16.54559 1171 ft 160 kts 290°
2026-05-07 06:51 48.11974 16.52969 1973 ft 160 kts 261°
2026-05-07 06:51 48.11466 16.51472 2736 ft 169 kts 231°
2026-05-07 06:52 48.10434 16.50542 3312 ft 188 kts 202°
2026-05-07 06:52 48.09126 16.49999 3880 ft 201 kts 201°
2026-05-07 06:52 48.07804 16.49187 4389 ft 215 kts 212°
2026-05-07 06:52 48.06503 16.47912 4867 ft 234 kts 220°
2026-05-07 06:53 48.05207 16.46269 5377 ft 255 kts 224°
2026-05-07 06:53 48.03903 16.44360 6010 ft 270 kts 230°
2026-05-07 06:53 48.02785 16.42107 6934 ft 273 kts 233°
2026-05-07 06:53 48.01606 16.39942 7918 ft 274 kts 228°
2026-05-07 06:54 48.00299 16.37911 8826 ft 277 kts 224°
2026-05-07 06:54 47.98905 16.35919 9743 ft 279 kts 222°
2026-05-07 06:54 47.97507 16.33967 10570 ft 283 kts 223°
2026-05-07 06:54 47.96197 16.31676 11036 ft 301 kts 235°
2026-05-07 06:55 47.95167 16.28839 11474 ft 319 kts 246°
2026-05-07 06:55 47.94350 16.25667 11894 ft 336 kts 248°
2026-05-07 06:55 47.93537 16.22372 12446 ft 347 kts 249°
2026-05-07 06:55 47.92712 16.18988 13255 ft 349 kts 249°
2026-05-07 06:56 47.91888 16.15607 14111 ft 350 kts 249°
2026-05-07 06:56 47.91062 16.12209 14878 ft 353 kts 249°
2026-05-07 06:56 47.90221 16.08761 15616 ft 356 kts 248°
2026-05-07 06:56 47.89378 16.05242 16370 ft 358 kts 249°
2026-05-07 06:57 47.88502 16.01576 17016 ft 364 kts 248°
2026-05-07 06:57 47.87397 15.98082 17593 ft 365 kts 237°
2026-05-07 06:57 47.85802 15.94988 17902 ft 363 kts 226°
2026-05-07 06:57 47.83840 15.92443 18094 ft 364 kts 218°
2026-05-07 06:58 47.81763 15.90079 18678 ft 368 kts 217°
2026-05-07 06:58 47.79645 15.87690 19451 ft 367 kts 217°
2026-05-07 06:58 47.77545 15.85322 19986 ft 373 kts 217°
2026-05-07 06:58 47.75371 15.82874 20219 ft 385 kts 217°
2026-05-07 06:59 47.73124 15.80341 20425 ft 397 kts 217°
2026-05-07 06:59 47.70834 15.77763 20624 ft 408 kts 217°
2026-05-07 06:59 47.68483 15.75116 20931 ft 415 kts 217°
2026-05-07 06:59 47.66104 15.72440 21442 ft 416 kts 217°
2026-05-07 07:00 47.63744 15.69790 21934 ft 418 kts 217°
2026-05-07 07:00 47.61317 15.67066 22379 ft 421 kts 216°
2026-05-07 07:00 47.58931 15.64392 22802 ft 423 kts 216°
2026-05-07 07:00 47.56489 15.61658 23216 ft 424 kts 216°
2026-05-07 07:01 47.54060 15.58940 23593 ft 426 kts 216°
2026-05-07 07:01 47.51664 15.56144 23935 ft 429 kts 221°
2026-05-07 07:01 47.49597 15.52734 24259 ft 435 kts 231°
2026-05-07 07:01 47.47983 15.48741 24560 ft 442 kts 241°
2026-05-07 07:02 47.46872 15.44280 24856 ft 448 kts 249°
2026-05-07 07:02 47.45973 15.39754 25162 ft 449 kts 250°
2026-05-07 07:02 47.45077 15.35170 25400 ft 451 kts 250°
2026-05-07 07:02 47.44181 15.30569 25649 ft 452 kts 249°
2026-05-07 07:03 47.43288 15.26000 25901 ft 453 kts 249°
2026-05-07 07:03 47.42389 15.21401 26128 ft 453 kts 249°
2026-05-07 07:03 47.41482 15.16786 26389 ft 453 kts 249°
2026-05-07 07:03 47.40583 15.12214 26693 ft 451 kts 249°
2026-05-07 07:04 47.39682 15.07651 27228 ft 444 kts 249°
2026-05-07 07:04 47.38797 15.03184 27721 ft 440 kts 249°
2026-05-07 07:04 47.37918 14.98758 28118 ft 437 kts 249°
2026-05-07 07:04 47.37035 14.94336 28485 ft 436 kts 249°
2026-05-07 07:05 47.36173 14.90017 28846 ft 434 kts 249°
2026-05-07 07:05 47.35298 14.85649 29170 ft 433 kts 249°
2026-05-07 07:05 47.34421 14.81274 29510 ft 432 kts 249°
2026-05-07 07:05 47.33548 14.76932 29853 ft 431 kts 249°
2026-05-07 07:06 47.32669 14.72565 30213 ft 429 kts 249°
2026-05-07 07:06 47.31802 14.68273 30557 ft 428 kts 249°
2026-05-07 07:06 47.30929 14.63954 30921 ft 426 kts 248°
2026-05-07 07:06 47.30068 14.59704 31238 ft 425 kts 248°
2026-05-07 07:07 47.29207 14.55462 31538 ft 424 kts 249°
2026-05-07 07:07 47.28330 14.51148 31825 ft 424 kts 248°
2026-05-07 07:07 47.27469 14.46924 32114 ft 423 kts 248°
2026-05-07 07:07 47.26596 14.42663 32395 ft 422 kts 249°
2026-05-07 07:08 47.25740 14.38471 32696 ft 420 kts 248°
2026-05-07 07:08 47.24876 14.34268 32962 ft 419 kts 248°
2026-05-07 07:08 47.24007 14.30045 33244 ft 418 kts 248°
2026-05-07 07:08 47.23141 14.25838 33534 ft 416 kts 247°
2026-05-07 07:09 47.22279 14.21682 33771 ft 416 kts 247°
2026-05-07 07:09 47.21414 14.17520 33934 ft 416 kts 247°
2026-05-07 07:09 47.19667 14.09136 33919 ft 415 kts 247°
2026-05-07 07:10 47.17932 14.00832 33927 ft 415 kts 247°
2026-05-07 07:10 47.16184 13.92501 33914 ft 416 kts 248°
2026-05-07 07:11 47.14428 13.84160 33918 ft 416 kts 247°
2026-05-07 07:11 47.12666 13.75839 33924 ft 416 kts 247°
2026-05-07 07:12 47.10897 13.67507 33926 ft 416 kts 248°
2026-05-07 07:12 47.09120 13.59166 33932 ft 417 kts 248°
2026-05-07 07:13 47.07333 13.50817 33912 ft 418 kts 248°
2026-05-07 07:13 47.05541 13.42484 33911 ft 419 kts 248°
2026-05-07 07:14 47.03748 13.34168 33914 ft 419 kts 247°
2026-05-07 07:14 47.01946 13.25854 33915 ft 419 kts 247°
2026-05-07 07:15 47.00126 13.17489 33905 ft 419 kts 247°
2026-05-07 07:15 46.98288 13.09071 33899 ft 419 kts 247°
2026-05-07 07:16 46.96450 13.00681 33900 ft 420 kts 247°
2026-05-07 07:16 46.94608 12.92317 33921 ft 420 kts 247°
2026-05-07 07:17 46.92758 12.83948 33926 ft 420 kts 248°
2026-05-07 07:17 46.90907 12.75595 33924 ft 420 kts 247°
2026-05-07 07:18 46.89043 12.67230 33933 ft 419 kts 248°
2026-05-07 07:18 46.87168 12.58851 33957 ft 420 kts 248°
2026-05-07 07:19 46.85290 12.50474 33995 ft 421 kts 248°
2026-05-07 07:19 46.83409 12.42122 33999 ft 422 kts 248°
2026-05-07 07:20 46.81515 12.33759 34003 ft 421 kts 247°
2026-05-07 07:20 46.79320 12.25592 33986 ft 417 kts 242°
2026-05-07 07:21 46.76707 12.17755 33992 ft 417 kts 240°
2026-05-07 07:21 46.74076 12.09960 33983 ft 417 kts 240°
2026-05-07 07:22 46.71433 12.02163 33987 ft 418 kts 240°
2026-05-07 07:22 46.68771 11.94342 33987 ft 418 kts 240°
2026-05-07 07:23 46.66117 11.86579 33995 ft 418 kts 241°
2026-05-07 07:23 46.63441 11.78765 33988 ft 419 kts 241°
2026-05-07 07:24 46.60788 11.71039 33991 ft 418 kts 241°
2026-05-07 07:24 46.58109 11.63265 33981 ft 420 kts 241°
2026-05-07 07:25 46.54079 11.51610 33978 ft 421 kts 241°
2026-05-07 07:26 46.51388 11.43853 33983 ft 422 kts 241°
2026-05-07 07:26 46.48674 11.36056 33967 ft 422 kts 241°
2026-05-07 07:27 46.45969 11.28317 33964 ft 422 kts 241°
2026-05-07 07:27 46.43234 11.20504 33954 ft 422 kts 241°
2026-05-07 07:28 46.40488 11.12685 33959 ft 423 kts 241°
2026-05-07 07:28 46.37748 11.04905 33972 ft 424 kts 241°
2026-05-07 07:29 46.34983 10.97075 33996 ft 425 kts 241°
2026-05-07 07:29 46.32218 10.89272 33981 ft 425 kts 241°
2026-05-07 07:30 46.29450 10.81485 33971 ft 425 kts 241°
2026-05-07 07:30 46.26667 10.73672 33958 ft 426 kts 241°
2026-05-07 07:31 46.23874 10.65863 33956 ft 426 kts 241°
2026-05-07 07:31 46.21092 10.58102 33951 ft 425 kts 241°
2026-05-07 07:32 46.18281 10.50281 33957 ft 427 kts 241°
2026-05-07 07:32 46.15466 10.42472 33971 ft 427 kts 242°
2026-05-07 07:33 46.12661 10.34708 33963 ft 427 kts 241°
2026-05-07 07:33 46.09887 10.27049 33969 ft 427 kts 241°
2026-05-07 07:34 46.07049 10.19252 33987 ft 427 kts 241°
2026-05-07 07:34 46.04042 10.11590 33975 ft 427 kts 237°
2026-05-07 07:35 46.00529 10.04356 33976 ft 428 kts 233°
2026-05-07 07:35 45.96908 9.97248 33965 ft 429 kts 233°
2026-05-07 07:36 45.93287 9.90153 33986 ft 430 kts 233°
2026-05-07 07:36 45.89672 9.83095 34000 ft 429 kts 233°
2026-05-07 07:37 45.86009 9.75962 33998 ft 429 kts 233°
2026-05-07 07:37 45.82391 9.68935 33986 ft 428 kts 233°
2026-05-07 07:38 45.78731 9.61846 33978 ft 429 kts 234°
2026-05-07 07:38 45.75080 9.54793 33978 ft 430 kts 234°
2026-05-07 07:39 45.71442 9.47783 33978 ft 430 kts 234°
2026-05-07 07:39 45.67754 9.40695 33974 ft 430 kts 234°
2026-05-07 07:40 45.64091 9.33670 33979 ft 431 kts 233°
2026-05-07 07:40 45.60421 9.26647 33983 ft 431 kts 233°
2026-05-07 07:41 45.56774 9.19686 33973 ft 431 kts 233°
2026-05-07 07:41 45.53091 9.12673 33974 ft 431 kts 233°
2026-05-07 07:42 45.49408 9.05679 33968 ft 430 kts 234°
2026-05-07 07:42 45.45693 8.98640 33968 ft 430 kts 234°
2026-05-07 07:43 45.41996 8.91650 33974 ft 430 kts 234°
2026-05-07 07:43 45.38167 8.84795 33966 ft 431 kts 229°
2026-05-07 07:44 45.33575 8.78920 33969 ft 434 kts 219°
2026-05-07 07:44 45.28287 8.74330 33971 ft 438 kts 209°
2026-05-07 07:45 45.22422 8.71125 33972 ft 442 kts 202°
2026-05-07 07:45 45.16364 8.68417 33966 ft 442 kts 201°
2026-05-07 07:46 45.10333 8.65749 33970 ft 441 kts 201°
2026-05-07 07:46 45.04301 8.63083 33969 ft 441 kts 202°
2026-05-07 07:47 44.98294 8.60431 33973 ft 440 kts 202°
2026-05-07 07:47 44.92318 8.57797 33976 ft 440 kts 202°
2026-05-07 07:48 44.86313 8.55157 33976 ft 440 kts 202°
2026-05-07 07:48 44.80288 8.52514 33970 ft 441 kts 202°
2026-05-07 07:49 44.74272 8.49882 33975 ft 440 kts 202°
2026-05-07 07:49 44.68273 8.47259 33981 ft 439 kts 202°
2026-05-07 07:50 44.62248 8.44637 33979 ft 438 kts 202°
2026-05-07 07:50 44.56265 8.42035 33890 ft 438 kts 202°
2026-05-07 07:50 44.53254 8.40727 33598 ft 438 kts 202°
2026-05-07 07:51 44.50267 8.39430 33298 ft 438 kts 202°
2026-05-07 07:51 44.47298 8.38145 32884 ft 434 kts 202°
2026-05-07 07:51 44.44298 8.36846 32109 ft 435 kts 203°
2026-05-07 07:51 44.41302 8.35547 31144 ft 439 kts 203°
2026-05-07 07:52 44.38338 8.34265 30171 ft 441 kts 202°
2026-05-07 07:52 44.35309 8.32955 29054 ft 445 kts 202°
2026-05-07 07:52 44.32340 8.31365 27842 ft 443 kts 212°
2026-05-07 07:52 44.29715 8.28882 26931 ft 441 kts 224°
2026-05-07 07:53 44.27562 8.25708 26244 ft 442 kts 235°
2026-05-07 07:53 44.25728 8.22108 25592 ft 444 kts 237°
2026-05-07 07:53 44.23907 8.18457 24915 ft 448 kts 237°
2026-05-07 07:53 44.22070 8.14763 24211 ft 451 kts 237°
2026-05-07 07:54 44.20221 8.11046 23524 ft 452 kts 237°
2026-05-07 07:54 44.18395 8.07378 22835 ft 447 kts 237°
2026-05-07 07:54 44.16559 8.03689 22161 ft 443 kts 237°
2026-05-07 07:54 44.14702 8.00155 21654 ft 442 kts 231°
2026-05-07 07:55 44.12229 7.97319 21384 ft 448 kts 218°
2026-05-07 07:55 44.09592 7.94817 21119 ft 447 kts 218°
2026-05-07 07:55 44.06952 7.92298 20844 ft 446 kts 218°
2026-05-07 07:55 44.04329 7.89762 20568 ft 445 kts 218°
2026-05-07 07:56 44.01717 7.87217 20294 ft 444 kts 218°
2026-05-07 07:56 43.99103 7.84660 20022 ft 443 kts 218°
2026-05-07 07:56 43.96476 7.82078 19746 ft 442 kts 218°
2026-05-07 07:56 43.93899 7.79542 19474 ft 441 kts 218°
2026-05-07 07:57 43.91303 7.76987 19195 ft 439 kts 218°
2026-05-07 07:57 43.88771 7.74495 18924 ft 438 kts 218°
2026-05-07 07:57 43.86216 7.71978 18648 ft 436 kts 218°
2026-05-07 07:57 43.83650 7.69453 18370 ft 436 kts 218°
2026-05-07 07:58 43.81095 7.66946 18081 ft 435 kts 218°
2026-05-07 07:58 43.78568 7.64468 17810 ft 433 kts 218°
2026-05-07 07:58 43.76021 7.61963 17541 ft 432 kts 218°
2026-05-07 07:58 43.73481 7.59462 17264 ft 430 kts 218°
2026-05-07 07:59 43.70932 7.57037 17006 ft 430 kts 213°
2026-05-07 07:59 43.68121 7.55327 16739 ft 434 kts 200°
2026-05-07 07:59 43.65013 7.54587 16465 ft 434 kts 185°
2026-05-07 07:59 43.61897 7.54921 16206 ft 436 kts 171°
2026-05-07 08:00 43.58873 7.56088 15959 ft 436 kts 165°
2026-05-07 08:00 43.55953 7.57554 15688 ft 436 kts 157°
2026-05-07 08:00 43.53258 7.59896 15324 ft 437 kts 142°
2026-05-07 08:00 43.51116 7.63032 14942 ft 437 kts 128°
2026-05-07 08:01 43.49352 7.66604 14543 ft 435 kts 124°
2026-05-07 08:01 43.47666 7.70259 14148 ft 432 kts 123°
2026-05-07 08:01 43.46017 7.73869 13773 ft 429 kts 123°
2026-05-07 08:01 43.44236 7.77287 13381 ft 424 kts 134°
2026-05-07 08:02 43.41923 7.79920 13036 ft 418 kts 150°
2026-05-07 08:02 43.39189 7.81547 12761 ft 413 kts 167°
2026-05-07 08:02 43.36281 7.82042 12470 ft 407 kts 184°
2026-05-07 08:02 43.33431 7.81378 12195 ft 401 kts 200°
2026-05-07 08:03 43.30859 7.79596 11930 ft 396 kts 217°
2026-05-07 08:03 43.28837 7.76886 11625 ft 385 kts 234°
2026-05-07 08:03 43.27611 7.73611 11344 ft 367 kts 253°
2026-05-07 08:03 43.27313 7.70144 11054 ft 353 kts 275°
2026-05-07 08:04 43.27971 7.66854 10765 ft 341 kts 296°
2026-05-07 08:04 43.29393 7.64185 10473 ft 331 kts 310°
2026-05-07 08:04 43.30998 7.61837 10186 ft 321 kts 313°
2026-05-07 08:04 43.32521 7.59554 9968 ft 308 kts 304°
2026-05-07 08:05 43.33348 7.56886 9943 ft 282 kts 280°
2026-05-07 08:05 43.33590 7.54133 9936 ft 276 kts 275°
2026-05-07 08:05 43.33727 7.51431 9530 ft 276 kts 275°
2026-05-07 08:05 43.33737 7.48701 9044 ft 276 kts 261°
2026-05-07 08:06 43.33268 7.46052 8673 ft 274 kts 255°
2026-05-07 08:06 43.32707 7.43487 8293 ft 273 kts 257°
2026-05-07 08:06 43.32561 7.40811 7854 ft 272 kts 275°
2026-05-07 08:06 43.32858 7.38172 7460 ft 270 kts 290°
2026-05-07 08:07 43.33812 7.35879 7057 ft 268 kts 306°
2026-05-07 08:07 43.34987 7.33757 6635 ft 268 kts 307°
2026-05-07 08:07 43.36174 7.31713 6244 ft 267 kts 308°
2026-05-07 08:07 43.37380 7.29666 5846 ft 266 kts 308°
2026-05-07 08:08 43.38592 7.27608 5464 ft 265 kts 308°
2026-05-07 08:08 43.39777 7.25586 5100 ft 263 kts 308°
2026-05-07 08:08 43.40955 7.23572 4727 ft 261 kts 308°
2026-05-07 08:08 43.42112 7.21589 4358 ft 259 kts 308°
2026-05-07 08:09 43.43267 7.19615 4024 ft 256 kts 308°
2026-05-07 08:09 43.44410 7.17640 3955 ft 258 kts 308°
2026-05-07 08:09 43.45551 7.15635 3962 ft 258 kts 308°
2026-05-07 08:09 43.46695 7.13606 3957 ft 258 kts 308°
2026-05-07 08:10 43.47814 7.11581 3949 ft 253 kts 308°
2026-05-07 08:10 43.48877 7.09657 3944 ft 237 kts 308°
2026-05-07 08:10 43.49866 7.07877 3927 ft 214 kts 314°
2026-05-07 08:10 43.50991 7.06641 3917 ft 189 kts 329°
2026-05-07 08:11 43.52124 7.05749 3944 ft 185 kts 332°
2026-05-07 08:11 43.53282 7.04954 4024 ft 186 kts 342°
2026-05-07 08:11 43.54495 7.04586 3970 ft 170 kts 360°
2026-05-07 08:11 43.55558 7.05149 4005 ft 170 kts 43°
2026-05-07 08:12 43.56231 7.06465 3657 ft 168 kts 62°
2026-05-07 08:12 43.56749 7.07872 3355 ft 162 kts 61°
2026-05-07 08:12 43.57335 7.09226 2790 ft 170 kts 56°
2026-05-07 08:12 43.58057 7.10498 2172 ft 176 kts 50°
2026-05-07 08:13 43.58850 7.11738 1790 ft 167 kts 49°
2026-05-07 08:13 43.59616 7.12888 1610 ft 171 kts 47°
2026-05-07 08:13 43.60417 7.14003 1347 ft 158 kts 43°
2026-05-07 08:13 43.61174 7.15014 1118 ft 146 kts 42°
2026-05-07 08:14 43.61909 7.15935 871 ft 139 kts 42°
2026-05-07 08:14 43.62613 7.16852 733 ft 140 kts 44°
2026-05-07 08:14 43.63282 7.17784 582 ft 131 kts 45°
2026-05-07 08:14 43.63953 7.18741 420 ft 140 kts 46°
2026-05-07 08:15 43.64626 7.19669 218 ft 134 kts 45°
2026-05-07 08:15 43.65275 7.20530 36 ft 124 kts 44°
2026-05-07 08:15 43.65780 7.21224 23 ft 66 kts 44°
2026-05-07 08:15 43.65969 7.21481 27 ft 11 kts 44°
2026-05-07 08:16 43.66041 7.21585 26 ft 26 kts 45°
2026-05-07 08:16 43.66119 7.21694 26 ft 23 kts 45°
2026-05-07 08:16 43.66225 7.21731 28 ft 16 kts 327°
2026-05-07 08:16 43.66301 7.21636 31 ft 10 kts 315°
2026-05-07 08:17 43.66362 7.21551 33 ft 6 kts 319°
2026-05-07 08:17 43.66364 7.21548 34 ft 0 kts 319°
2026-05-07 08:18 43.66365 7.21547 34 ft 0 kts 319°
2026-05-07 08:18 43.66438 7.21570 35 ft 12 kts 45°
2026-05-07 08:18 43.66506 7.21664 34 ft 13 kts 45°
2026-05-07 08:18 43.66574 7.21712 33 ft 8 kts 317°
2026-05-07 08:19 43.66606 7.21668 34 ft 0 kts 315°